[[{"header":{"parameterUnit":"m.s-1","parameterCategory":1,"la1":30.2991,"la2":30.254,"lo1":-89.0895,"lo2":-89.0444,"dy":0.0017,"dx":0.0017,"nx":28,"ny":28,"refTime":"2024-06-19T03:00:00:Z","depth":0,"parameterNumber":2,"parameterNumberName":"U-component_of_WINDS"},"data":[0,0,0,0,0,0,0,0,0,0,0,0,0,0,0,0,0,0,0,0,0,0,0,0,0,0,0,0,0,0,0,0,0,0,0,0,0,0,0,0,0,0,0,0,0,0,0,0,0,0,0,0,0,0,0,0,0,0,-5.0805,-5.0806,0,-5.0885,-5.0886,-5.0887,-5.0773,-5.0769,-5.0765,-5.0761,-5.0843,-5.0849,-5.0854,0,0,0,0,0,0,0,0,0,0,0,0,0,-5.0554,-5.0559,-5.0805,-5.0806,-5.0807,-5.0885,-5.0886,-5.0887,-5.0774,-5.0769,-5.0764,-5.0759,-5.0841,-5.0848,-5.0855,0,0,0,0,0,0,0,0,0,0,0,0,0,-5.0652,-5.0561,-5.0805,-5.076,-5.0757,-5.0885,-5.0886,-5.0887,-5.0775,-5.0768,-5.0762,-5.0757,-5.0839,-5.0847,-5.0856,-5.1032,0,0,-5.0883,-5.0887,0,0,0,0,0,0,0,0,-5.0646,-5.0661,-5.0766,-5.0763,-5.076,-5.0813,-5.0827,-5.0936,-5.0776,-5.0768,-5.0761,-5.0754,-5.0838,-5.0846,-5.0874,-5.1036,-5.1039,-5.0884,-5.0889,-5.0893,-5.0896,0,0,0,0,0,0,0,-5.064,-5.0657,-5.0837,-5.0767,-5.0764,-5.0735,-5.0743,-5.0847,-5.0836,-5.0768,-5.076,-5.0771,-5.0835,-5.0866,-5.0876,-5.104,-5.0884,-5.0892,-5.0897,-5.0901,-5.1347,-5.1353,0,0,0,0,0,0,-5.0638,-5.0652,-5.0834,-5.0839,-5.0687,-5.0745,-5.0753,-5.0802,-5.0834,-5.0833,-5.0776,-5.0765,-5.0854,-5.0865,-5.0878,-5.1083,-5.0893,-5.0901,-5.0907,-5.134,-5.1348,-5.1355,0,0,0,0,0,0,-5.0633,-5.0656,-5.0831,-5.0743,-5.0763,-5.0756,-5.0812,-5.0807,-5.0837,-5.084,-5.0838,-5.081,-5.085,-5.0865,-5.0994,-5.1085,-5.0905,-5.0914,-5.1333,-5.1343,-5.1352,-5.1497,0,0,0,0,0,0,-5.0627,-5.0655,-5.0721,-5.0746,-5.0769,-5.0946,-5.0817,-5.0813,-5.0853,-5.084,-5.0871,-5.0871,-5.0846,-5.0981,-5.1003,-5.1094,-5.092,-5.1324,-5.1337,-5.1349,-5.1484,-5.1511,-5.1534,0,0,0,0,0,-5.0618,-5.076,-5.0725,-5.0748,-5.0852,-5.0951,-5.0964,-5.0933,-5.0861,-5.0928,-5.0929,-5.087,-5.1072,-5.0995,-5.1018,-5.1114,-5.1319,-5.1334,-5.1348,-5.1473,-5.1506,-5.1533,0,0,0,0,0,0,-5.0747,-5.0762,-5.0724,-5.0878,-5.0914,-5.0932,-5.1015,-5.0969,-5.1026,-5.1011,-5.097,-5.0978,-5.1115,-5.1127,-5.1042,-5.1284,-5.1183,-5.1203,-5.1271,-5.1301,-5.1326,-5.1318,-5.0928,0,0,0,0,0,-5.0793,-5.0873,-5.0882,-5.1017,-5.1037,-5.1024,-5.1065,-5.1038,-5.1074,-5.1089,-5.1099,-5.1136,-5.1208,-5.1256,-5.1322,-5.1487,-5.149,-5.1563,-5.1588,-5.1608,-5.1625,-5.1711,-5.1742,-5.1404,-5.1403,-5.1403,0,0,-5.0889,-5.0908,-5.096,-5.1043,-5.1068,-5.115,-5.1037,-5.1129,-5.119,-5.1103,-5.1223,-5.1233,-5.1272,-5.1418,-5.1483,-5.1433,-5.172,-5.1627,-5.1643,-5.1649,-5.1729,-5.1761,-5.179,-5.1414,-5.1412,-5.141,0,0,-5.1106,-5.1129,-5.1243,-5.127,-5.1308,-5.1298,-5.1326,-5.1351,-5.1354,-5.1474,-5.141,-5.1482,-5.1607,-5.1636,-5.1667,-5.1895,-5.1841,-5.1918,-5.2046,-5.2129,-5.2156,-5.2179,-5.2258,-5.2287,-5.1935,-5.1936,-5.1936,0,-5.1221,-5.1342,-5.1307,-5.1403,-5.1441,-5.1366,-5.148,-5.1508,-5.1567,-5.1594,-5.1537,-5.169,-5.1712,-5.1862,-5.1918,-5.1947,-5.1976,-5.1913,-5.2155,-5.2178,-5.22,-5.2274,-5.2304,-5.1945,-5.1944,-5.1943,-5.1942,0,-5.148,-5.1565,-5.1652,-5.171,-5.1757,-5.1863,-5.1842,-5.1895,-5.1864,-5.186,-5.1983,-5.2006,-5.2074,-5.2109,-5.208,-5.2256,-5.2223,-5.2162,-5.2059,-5.2241,-5.231,-5.2339,-5.1957,-5.1954,-5.1951,-5.1949,0,0,-5.1778,-5.1815,-5.1847,-5.1871,-5.1909,-5.1974,-5.2075,-5.2141,-5.2186,-5.223,-5.2312,-5.242,-5.2362,-5.2398,-5.2372,-5.2446,-5.2622,-5.2375,-5.2376,-5.2418,-5.2814,-5.2858,-5.2892,-5.2588,-5.2593,-5.2598,-5.281,0,-5.1992,-5.2166,-5.2137,-5.2306,-5.2383,-5.2313,-5.2401,-5.2433,-5.2433,-5.2498,-5.2497,-5.2572,-5.2493,-5.2514,-5.2584,-5.2586,-5.2701,-5.2571,-5.2663,-5.2667,-5.2652,-5.2928,-5.2975,-5.3174,-5.2837,-5.2842,-5.2845,0,-5.2265,-5.2317,-5.2493,-5.2516,-5.2547,-5.2627,-5.2684,-5.2748,-5.2783,-5.2777,-5.2817,-5.2777,-5.2877,-5.2776,-5.2912,-5.2824,-5.2861,-5.2868,-5.2874,-5.2879,-5.2765,-5.2938,-5.3237,-5.3266,-5.2888,-5.2884,-5.2881,0,-5.2461,-5.2576,-5.2695,-5.2718,-5.2749,-5.2806,-5.2822,-5.2851,-5.2892,-5.2943,-5.2969,-5.3032,-5.3066,-5.3115,-5.3093,-5.3021,-5.3233,-5.3129,-5.3229,-5.323,-5.3274,-5.3271,-5.3581,-5.3304,-5.3303,-5.3303,-5.3302,0,-5.2701,-5.281,-5.2783,-5.2856,-5.2976,-5.2943,-5.3063,-5.307,-5.3097,-5.3169,-5.3114,-5.3184,-5.3151,-5.3219,-5.3203,-5.3317,-5.3333,-5.333,-5.3324,-5.3334,-5.3334,-5.3355,-5.3339,-5.3311,-5.3309,-5.3307,-5.3306,0,-5.2939,-5.2925,-5.305,-5.3069,-5.3077,-5.3164,-5.318,-5.3249,-5.3244,-5.3337,-5.3357,-5.3349,-5.3426,-5.3409,-5.3493,-5.3482,-5.3625,-5.3603,-5.3613,-5.3606,-5.3706,-5.3696,-5.4037,-5.4079,-5.3778,-5.3781,-5.3783,0,-5.3091,-5.3174,-5.3201,-5.3246,-5.3266,-5.3339,-5.338,-5.335,-5.3396,-5.3441,-5.3504,-5.3575,-5.363,-5.3755,-5.3757,-5.3821,-5.3799,-5.3914,-5.3808,-5.3814,-5.3797,-5.3791,-5.3798,-5.3934,-5.3938,-5.394,-5.3943,0,-5.3362,-5.3351,-5.3413,-5.3473,-5.3524,-5.3569,-5.361,-5.365,-5.3623,-5.3677,-5.3754,-5.3797,-5.3882,-5.3953,-5.4012,-5.4027,-5.3981,-5.3977,-5.4002,-5.4011,-5.4012,-5.401,-5.3667,-5.3968,-5.3966,-5.3964,-5.3962,-5.3961,-5.356,-5.3629,-5.3659,-5.3729,-5.3756,-5.3795,-5.3859,-5.3863,-5.3926,-5.3992,-5.3971,-5.4059,-5.4091,-5.4165,-5.4188,-5.4255,-5.4212,-5.425,-5.4259,-5.4268,-5.4279,-5.4004,-5.4266,-5.4266,-5.4265,-5.4264,-5.4264,0,-5.3825,-5.3841,-5.3906,-5.3964,-5.4019,-5.3971,-5.4013,-5.4062,-5.4139,-5.4173,-5.4228,-5.4316,-5.4384,-5.4392,-5.4456,-5.4509,-5.4489,-5.4527,-5.4521,-5.4525,-5.4316,-5.4285,-5.4542,-5.4542,-5.4541,-5.4541,-5.4541,-5.4541,-5.397,-5.4083,-5.4076,-5.4202,-5.4217,-5.4301,-5.4329,-5.4364,-5.439,-5.4491,-5.4547,-5.4552,-5.4575,-5.464,-5.4701,-5.4701,-5.4726,-5.4772,-5.4764,-5.4568,-5.454,-5.4513,-5.4484,-5.4778,-5.4778,-5.4966,-5.4968,-5.497]},{"header":{"parameterUnit":"m.s-1","parameterCategory":1,"la1":30.2991,"la2":30.254,"lo1":-89.0895,"lo2":-89.0444,"dy":0.0017,"dx":0.0017,"nx":28,"ny":28,"refTime":"2024-06-19T03:00:00:Z","depth":0,"parameterNumber":3,"parameterNumberName":"V-component_of_WINDS"},"data":[0,0,0,0,0,0,0,0,0,0,0,0,0,0,0,0,0,0,0,0,0,0,0,0,0,0,0,0,0,0,0,0,0,0,0,0,0,0,0,0,0,0,0,0,0,0,0,0,0,0,0,0,0,0,0,0,0,0,0.3892,0.3892,0,0.3893,0.3893,0.3893,0.3886,0.3886,0.3886,0.3886,0.3884,0.3884,0.3884,0,0,0,0,0,0,0,0,0,0,0,0,0,0.3882,0.3882,0.3892,0.3892,0.3892,0.3893,0.3893,0.3893,0.3886,0.3886,0.3886,0.3885,0.3884,0.3884,0.3884,0,0,0,0,0,0,0,0,0,0,0,0,0,0.3885,0.3882,0.3892,0.3889,0.3888,0.3893,0.3893,0.3893,0.3886,0.3886,0.3886,0.3885,0.3884,0.3884,0.3884,0.3891,0,0,0.3885,0.3885,0,0,0,0,0,0,0,0,0.3884,0.3885,0.3889,0.3889,0.3888,0.3889,0.3889,0.3892,0.3886,0.3887,0.3886,0.3885,0.3886,0.3886,0.3887,0.3891,0.3891,0.3885,0.3885,0.3885,0.3885,0,0,0,0,0,0,0,0.3884,0.3885,0.3892,0.3889,0.3889,0.3887,0.3887,0.389,0.3888,0.3887,0.3886,0.3887,0.3886,0.3886,0.3886,0.3891,0.3885,0.3885,0.3885,0.3885,0.3903,0.3903,0,0,0,0,0,0,0.3885,0.3885,0.3892,0.3892,0.3886,0.3887,0.3887,0.3889,0.3888,0.3887,0.3887,0.3886,0.3886,0.3886,0.3886,0.3895,0.3885,0.3885,0.3885,0.3903,0.3903,0.3904,0,0,0,0,0,0,0.3885,0.3886,0.3892,0.3888,0.3889,0.3887,0.389,0.3889,0.389,0.3888,0.3887,0.3888,0.3886,0.3886,0.3891,0.3895,0.3885,0.3886,0.3902,0.3903,0.3903,0.3913,0,0,0,0,0,0,0.3884,0.3886,0.3888,0.3889,0.3889,0.3897,0.389,0.389,0.3891,0.389,0.3889,0.3889,0.3886,0.389,0.3891,0.3895,0.3886,0.3902,0.3903,0.3903,0.3912,0.3914,0.3915,0,0,0,0,0,0.3884,0.389,0.3889,0.3889,0.3893,0.3897,0.3897,0.3895,0.3891,0.3894,0.3893,0.3889,0.3895,0.3891,0.3891,0.3896,0.3902,0.3902,0.3903,0.3911,0.3913,0.3915,0,0,0,0,0,0,0.3889,0.389,0.3888,0.3895,0.3896,0.3896,0.3899,0.3897,0.3898,0.3897,0.3893,0.3893,0.3899,0.3898,0.3893,0.3903,0.3897,0.3898,0.3904,0.3905,0.3907,0.3907,0.3886,0,0,0,0,0,0.3891,0.3895,0.3895,0.3901,0.3902,0.3901,0.3902,0.3901,0.3901,0.3901,0.39,0.3901,0.3903,0.3904,0.3906,0.3912,0.3912,0.3916,0.3917,0.3918,0.3919,0.3923,0.3925,0.3906,0.3906,0.3906,0,0,0.3895,0.3896,0.3898,0.3902,0.3903,0.3907,0.3901,0.3905,0.3907,0.3902,0.3906,0.3906,0.3906,0.3912,0.3914,0.3911,0.3924,0.3919,0.392,0.392,0.3924,0.3926,0.3927,0.3907,0.3907,0.3906,0,0,0.3904,0.3905,0.391,0.3912,0.3914,0.3913,0.3915,0.3915,0.3915,0.392,0.3916,0.3919,0.3923,0.3923,0.3924,0.3935,0.3931,0.3936,0.3943,0.3947,0.3949,0.395,0.3954,0.3956,0.3937,0.3937,0.3937,0,0.3908,0.3914,0.3913,0.3918,0.392,0.3917,0.3922,0.3923,0.3925,0.3926,0.3923,0.3929,0.3928,0.3935,0.3938,0.3938,0.394,0.3936,0.3949,0.395,0.3951,0.3955,0.3957,0.3937,0.3937,0.3937,0.3937,0,0.392,0.3924,0.3928,0.3932,0.3934,0.3939,0.3939,0.3941,0.394,0.3939,0.3945,0.3945,0.3947,0.3949,0.3946,0.3955,0.3953,0.3949,0.3943,0.3953,0.3957,0.3959,0.3938,0.3938,0.3938,0.3938,0,0,0.393,0.3935,0.3936,0.3938,0.3941,0.3944,0.3949,0.3953,0.3955,0.3957,0.3961,0.3965,0.3963,0.3964,0.3962,0.3965,0.3975,0.3961,0.3961,0.3964,0.3985,0.3988,0.399,0.3973,0.3973,0.3974,0.3985,0,0.3939,0.3949,0.3949,0.3958,0.3962,0.396,0.3965,0.3967,0.3967,0.397,0.397,0.3973,0.3969,0.397,0.3974,0.3973,0.3979,0.3972,0.3976,0.3977,0.3976,0.3991,0.3994,0.4005,0.3987,0.3987,0.3987,0,0.3951,0.3955,0.3964,0.3968,0.397,0.3974,0.3978,0.3981,0.3984,0.3984,0.3986,0.3984,0.3989,0.3984,0.3991,0.3986,0.3988,0.3988,0.3988,0.3988,0.3982,0.3992,0.4008,0.401,0.3989,0.3989,0.3989,0,0.3958,0.3966,0.3973,0.3975,0.3979,0.3982,0.3984,0.3986,0.3989,0.3992,0.3994,0.3997,0.3999,0.4001,0.4,0.3996,0.4007,0.4002,0.4007,0.4007,0.4009,0.4009,0.4026,0.4011,0.4011,0.4011,0.4011,0,0.3968,0.3974,0.3976,0.3981,0.3988,0.3988,0.3994,0.3996,0.3998,0.4002,0.4,0.4004,0.4003,0.4007,0.4006,0.4012,0.4013,0.4013,0.4012,0.4013,0.4013,0.4013,0.4012,0.4011,0.4011,0.4011,0.4011,0,0.3977,0.3979,0.3986,0.399,0.3992,0.3996,0.4,0.4004,0.4005,0.401,0.4011,0.4012,0.4017,0.4017,0.4021,0.4021,0.4029,0.4027,0.4028,0.4028,0.4033,0.4033,0.4051,0.4054,0.4037,0.4037,0.4037,0,0.3983,0.3988,0.3993,0.3996,0.3999,0.4004,0.4007,0.4008,0.4011,0.4015,0.4019,0.4024,0.4027,0.4035,0.4036,0.4039,0.4038,0.4044,0.4039,0.4039,0.4038,0.4038,0.4039,0.4045,0.4045,0.4046,0.4046,0,0.3993,0.3995,0.4,0.4006,0.401,0.4014,0.4018,0.4021,0.4022,0.4026,0.4031,0.4035,0.404,0.4045,0.4049,0.405,0.4048,0.4048,0.4049,0.4049,0.405,0.405,0.4031,0.4047,0.4047,0.4047,0.4047,0.4047,0.4001,0.4006,0.4011,0.4017,0.402,0.4025,0.4029,0.4031,0.4036,0.4042,0.4042,0.4048,0.4051,0.4057,0.4059,0.4063,0.4061,0.4063,0.4063,0.4064,0.4064,0.405,0.4064,0.4064,0.4064,0.4064,0.4064,0,0.4012,0.4016,0.4021,0.4028,0.4033,0.4032,0.4037,0.4041,0.4047,0.405,0.4055,0.4061,0.4067,0.4068,0.4073,0.4077,0.4076,0.4078,0.4077,0.4078,0.4066,0.4064,0.4078,0.4078,0.4078,0.4078,0.4078,0.4078,0.4018,0.4026,0.4028,0.4038,0.4042,0.4049,0.4052,0.4055,0.4059,0.4067,0.4071,0.4073,0.4076,0.4082,0.4086,0.4087,0.4089,0.4091,0.4091,0.408,0.4078,0.4077,0.4075,0.4091,0.4091,0.4102,0.4102,0.4102]}]]